Tracking 29892 objects as of 21-Nov-2024
HD Live streaming from Space Station
objects crossing your sky now

COSMOS 860 COOLANT

Track COSMOS 860 COOLANT now!
10-day predictions


NORAD ID: 29195
Int'l Code: 1976-103H
Perigee: 898.0 km
Apogee: 995.4 km
Inclination: 64.7 °
Period: 103.8 minutes
Semi major axis: 7317 km
RCS: 0.0092 m2 (small)
Launch date: October 17, 1976
Source: Commonwealth of Independent States (former USSR) (CIS)
Launch site: TYURATAM MISSILE AND SPACE COMPLEX (TTMTR)

Note: This is SATELLITE DEBRIS
Your satellite tracking list
Your tracking list is empty




NASA's NSSDC Master Catalog

Two Line Element Set (TLE):
1 29195U 76103H   24317.11899723  .00000676  00000-0  64460-3 0  9992
2 29195  64.6964  94.9996 0066535 321.0447  38.5828 13.86894186558933
Source of the keplerian elements: AFSPC